Hourly Weather Roundup
Issued by NWS Central Illinois

Home | Current Version | Previous Version | Text Only | Print | Product List | Glossary On
Versions: 1 2 3 4 5 6 7 8 9 10 11 12 13 14 15 16 17 18 19 20 21 22 23 24 25 26 27 28 29 30 31 32 33 34 35 36 37 38 39 40 41 42 43 44 45 46 47 48 49 50
000
NZUS43 KILX 241510
HWRILX

AREA WEATHER ROUNDUP
NATIONAL WEATHER SERVICE, LINCOLN IL
1000 AM CDT FRI MAR 24 2017


CITY           SKY/WX    TMP DP  RH WIND       PRES   REMARKS
BLOOMINGTON    SUNNY     67  52  58 S18G24    29.98S
CHAMPAIGN      SUNNY     67  52  58 S25G35    30.03S
DECATUR        SUNNY     66  52  60 S20G26    30.02S
EFFINGHAM      SUNNY     66  56  71 SE14G21   30.10S
FLORA          SUNNY     68  59  72 S16       30.11F
GALESBURG      SUNNY     64  50  60 S15G22    29.91S
JACKSONVILLE   SUNNY     67  53  60 S14       29.97R
LACON          SUNNY     64  49  59 SW14G20   29.94R
LAWRENCEVILLE  PTSUNNY   67  56  67 S20G26    30.15S
LITCHFIELD     SUNNY     65  56  72 S20G26    30.03R
$$


CITY           SKY/WX    TMP DP  RH WIND       PRES   REMARKS
LINCOLN        SUNNY     66  55  67 S14G20    29.98S
MACOMB         SUNNY     67  50  53 S17G24    29.94S
MATTOON        SUNNY     64  55  72 S16G29    30.07S
MT CARMEL AP   SUNNY     66  55  66 S20       30.13F
OLNEY-NOBLE AP MOSUNNY   64  59  82 S20       30.12F
PARIS          SUNNY     66  55  68 S23       30.09S
PEORIA         SUNNY     64  51  62 S14       29.95S
PONTIAC        SUNNY     65  52  62 S18       29.98S
RANTOUL        SUNNY     66  55  65 S17G24    30.02S
SPRINGFIELD    SUNNY     68  54  60 S14G22    29.98F
TAYLORVILLE    SUNNY     64  55  72 S18       30.02S
$$

...REGIONAL REPORTS...


CITY           SKY/WX    TMP DP  RH WIND       PRES   REMARKS
CHICAGO O`HARE CLOUDY    66  49  54 SW17G24   29.91S
KANKAKEE       SUNNY     65  51  59 S22G28    29.99S
MOLINE         SUNNY     69  48  47 SW23G31   29.86S
MOUNT STERLING SUNNY     68  51  54 S14       29.93S
MOUNT VERNON   CLOUDY    66  58  75 SW21G30   30.11S
PITTSFIELD     SUNNY     71  52  49 S18G24    29.95F
QUINCY         SUNNY     69  50  50 S14       29.92S
ROCKFORD       CLOUDY    66  49  54 SW16G24   29.89F
$$


CITY           SKY/WX    TMP DP  RH WIND       PRES   REMARKS
BURLINGTON     SUNNY     69  51  52 S18G26    29.89R
CEDAR RAPIDS   CLOUDY    65  51  60 S17       29.82R
DES MOINES     CLOUDY    65  49  56 SW8       29.82R
KIRKSVILLE     MOSUNNY   70  32  24 S16       29.89R
OTTUMWA        CLOUDY    69  48  47 S17       29.84S
ST LOUIS       PTSUNNY   73  54  51 S15G23    30.00S
$$


CITY           SKY/WX    TMP DP  RH WIND       PRES   REMARKS
TERRE HAUTE    SUNNY     64  53  67 S16G31    30.12S
EVANSVILLE     SUNNY     68  55  63 SW22G29   30.18R
INDIANAPOLIS   PTSUNNY   66  53  63 S14       30.13S
LAFAYETTE      SUNNY     65  53  65 SW21G30   30.06F
MADISON        PTSUNNY   51  44  77 S5        29.87R
MILWAUKEE      CLOUDY    52  42  69 CALM      29.89F
$$





USA.gov is the U.S. government's official web portal to all federal, state and local government web resources and services.